Content
SEND FEEDBACK

Daily
Averages
Monthly
Summary
United States of America

ENGLEWOOD, COLORADO


Home > North America > United States > Colorado
Elevation: 5570 feet     Latitude: 39 39N     Longitude: 104 51W

WEATHER
 
SELECT A DAY
Number of Records: 180,590;   Date Range: 1/1/95 - 7/29/14
 
SHARE

PRINT THIS DATA

[ ← Previous Day ]
WEATHER ALMANAC - FEBRUARY 13, 2013
[ Next Day → ]
[ °C ]   °F
Weather ElementAverageHighLow
Temperature34.3 °F45 °F (1:53 pm)21 °F (2:53 am)
Dewpoint10.3 °F14 °F (11:53 pm)6.1 °F (1:53 am)
Humidity38.6 %57 % (3:53 am)23 % (10:53 am)
Barometer30.01 in30.07 in (1:53 am)29.97 in (1:53 pm)
Wind Speed11.2 mph26.5 mph (11:53 am)
Wind Gust34.5 mph (11:53 am)
Weather ElementAverage
Visibility10 mi
Wind DirectionWSW (247.3 °)

Weather ElementTotal
Precipitation---
Heating Degree Days32 (Base 65)
Averaged from 22 records on February 13, 2013
WEATHER CONDITIONS BREAKOUT
WIND DIRECTION BREAKOUT
WEATHER BY HOUR - FEBRUARY 13, 2013
[ °C ]   °F
Local TimeTemperatureDewpointHumidityBarometerVisibilityWind DirectionWind SpeedGust SpeedPrecipitationEventsConditions
1:53 AM21.9 °F6.1 °F51 %30.07 in10.0 miSW (220°)5.8 mphClear
2:53 AM21.0 °F7.0 °F55 %30.03 in10.0 miSW (220°)9.2 mphScattered Clouds
3:53 AM21.0 °F8.1 °F57 %30.02 in10.0 miSW (220°)9.2 mphScattered Clouds
5:53 AM25.0 °F9.0 °F51 %30.02 in10.0 miSW (220°)9.2 mphScattered Clouds
6:53 AM26.1 °F9.0 °F49 %30.01 in10.0 miSW (220°)8.1 mphScattered Clouds
7:53 AM30.9 °F10.9 °F43 %30.01 in10.0 miSSW (210°)9.2 mphScattered Clouds
8:53 AM36.0 °F9.0 °F33 %30.00 in10.0 miWSW (240°)11.5 mphMostly Cloudy
9:53 AM39.0 °F10.0 °F30 %29.99 in10.0 miSSW (210°)10.4 mphMostly Cloudy
10:53 AM44.1 °F8.1 °F23 %30.00 in10.0 miNNW (330°)10.4 mph16.1 mphMostly Cloudy
11:53 AM42.1 °F10.0 °F27 %30.02 in10.0 miNW (320°)26.5 mph34.5 mphMostly Cloudy
12:53 PM42.1 °F12.0 °F29 %30.02 in10.0 miNW (320°)21.9 mph29.9 mphMostly Cloudy
1:53 PM45.0 °F10.0 °F24 %29.97 in10.0 miNW (310°)24.2 mph34.5 mphMostly Cloudy
2:53 PM43.0 °F10.9 °F27 %29.98 in10.0 miNW (320°)21.9 mph28.8 mphMostly Cloudy
3:53 PM41.0 °F12.0 °F31 %29.99 in10.0 miNW (320°)13.8 mph21.9 mphMostly Cloudy
4:53 PM41.0 °F12.9 °F32 %29.98 in10.0 miNW (320°)19.6 mph27.6 mphMostly Cloudy
5:53 PM39.0 °F12.0 °F33 %30.00 in10.0 miWNW (300°)12.7 mphScattered Clouds
6:53 PM37.9 °F10.9 °F33 %30.02 in10.0 miWNW (300°)10.4 mph19.6 mphScattered Clouds
7:53 PM35.1 °F10.9 °F37 %30.03 in10.0 miNNW (330°)4.6 mphScattered Clouds
8:53 PM33.1 °F10.9 °F40 %30.02 in10.0 miCalmScattered Clouds
9:53 PM33.1 °F10.9 °F40 %30.02 in10.0 miNW (320°)3.5 mphScattered Clouds
10:53 PM28.0 °F12.0 °F51 %30.02 in10.0 miCalmScattered Clouds
11:53 PM28.9 °F14.0 °F54 %30.03 in10.0 miSouth (190°)4.6 mphScattered Clouds
Hourly data recorded from KAPA, located miles away from Englewood, Colorado







STORIES FROM OUR PARTNERS